Location: La Pernelle
(49.6188°N, 1.2999°W)
Time: 10:03:16
(UTC+00:00)

COSMOS 2428 - Pass Details

Date: 12 June 2021
Orbit: 845 x 858 km, 70.9° (Epoch: 28 July)

Event Time Altitude Azimuth Distance (km) Brightness Sun altitude
Exits shadow 22:50:43 23° 150° (SSE) 1,757 3.8 -15.3°
Maximum altitude 22:53:20 33° 106° (ESE) 1,400 3.6 -15.4°
Drops below altitude 10° 22:58:24 10° 44° (NE) 2,502 5.6 -15.7°
Sets 23:01:04 0° 35° (NE) 3,444 6.5 -15.8°
